• In Sweden
  • List of Countries
  • For 7 days
  • Water Temperature
  • Satellite Maps
  • Weather Map
  • Weather Widgets
  • user-avatar
    Login

    Hourly Weather Barnsley

    Today, 22 July, Sunday

    Time Temperature Precipitation Wind Pressure Humidity
    00:00 +14°C° 0 mm 3 mps 751 mmHg 77%
    01:00 +14°C° 0 mm 3 mps 751 mmHg 78%
    02:00 +14°C° 0 mm 3 mps 750 mmHg 78%
    03:00 +16°C° 0 mm 3 mps 750 mmHg 78%
    04:00 +16°C° 0 mm 3 mps 751 mmHg 80%
    05:00 +16°C° 0 mm 3 mps 751 mmHg 81%
    06:00 +17°C° 0 mm 3 mps 751 mmHg 83%
    07:00 +18°C° 0 mm 3 mps 751 mmHg 80%
    08:00 +19°C° 0 mm 3 mps 751 mmHg 78%
    09:00 +20°C° 0 mm 3 mps 751 mmHg 76%
    10:00 +22°C° 0 mm 3 mps 751 mmHg 74%
    11:00 +24°C° 0 mm 3 mps 751 mmHg 71%
    12:00 +25°C° 0 mm 4 mps 751 mmHg 69%
    13:00 +25°C° 0 mm 4 mps 751 mmHg 68%
    14:00 +26°C° 0 mm 4 mps 751 mmHg 68%
    15:00 +26°C° 0 mm 4 mps 751 mmHg 67%
    16:00 +26°C° 0.1 mm 4 mps 751 mmHg 69%
    17:00 +25°C° 0.1 mm 3 mps 751 mmHg 71%
    18:00 +25°C° 0.1 mm 3 mps 751 mmHg 73%
    19:00 +24°C° 0 mm 3 mps 751 mmHg 77%
    20:00 +21°C° 0 mm 2 mps 751 mmHg 82%
    21:00 +20°C° 0 mm 2 mps 752 mmHg 86%
    22:00 +19°C° 0 mm 2 mps 752 mmHg 87%
    23:00 +19°C° 0 mm 2 mps 752 mmHg 88%

    Tomorrow, 23 July, Monday

    Time Temperature Precipitation Wind Pressure Humidity
    00:00 +20°C° 0 mm 1 mps 752 mmHg 89%
    01:00 +19°C° 0 mm 1 mps 752 mmHg 89%
    02:00 +19°C° 0 mm 1 mps 752 mmHg 90%
    03:00 +19°C° 0 mm 1 mps 752 mmHg 91%
    04:00 +20°C° 0 mm 1 mps 752 mmHg 90%
    05:00 +19°C° 0 mm 2 mps 752 mmHg 88%
    06:00 +20°C° 0 mm 2 mps 752 mmHg 87%
    07:00 +21°C° 0 mm 2 mps 752 mmHg 83%
    08:00 +23°C° 0 mm 2 mps 752 mmHg 78%
    09:00 +24°C° 0 mm 3 mps 752 mmHg 74%
    10:00 +25°C° 0.2 mm 3 mps 751 mmHg 71%
    11:00 +26°C° 0.2 mm 3 mps 751 mmHg 67%
    12:00 +27°C° 0.2 mm 3 mps 751 mmHg 63%
    13:00 +27°C° 0.6 mm 3 mps 751 mmHg 64%
    14:00 +27°C° 0.6 mm 4 mps 751 mmHg 65%
    15:00 +27°C° 0.6 mm 4 mps 750 mmHg 65%
    16:00 +27°C° 0.4 mm 3 mps 750 mmHg 67%
    17:00 +26°C° 0.4 mm 3 mps 750 mmHg 69%
    18:00 +26°C° 0.4 mm 3 mps 750 mmHg 71%
    19:00 +25°C° 0.1 mm 3 mps 750 mmHg 76%
    20:00 +23°C° 0.1 mm 2 mps 750 mmHg 80%
    21:00 +21°C° 0.1 mm 2 mps 750 mmHg 85%
    22:00 +20°C° 0 mm 2 mps 750 mmHg 86%
    23:00 +20°C° 0 mm 2 mps 750 mmHg 87%

    Day after tomorrow, 24 July, Tuesday

    Time Temperature Precipitation Wind Pressure Humidity
    00:00 +19°C° 0 mm 2 mps 750 mmHg 89%
    01:00 +19°C° 0 mm 2 mps 750 mmHg 89%
    02:00 +18°C° 0 mm 2 mps 750 mmHg 90%
    03:00 +18°C° 0 mm 2 mps 749 mmHg 91%
    04:00 +18°C° 0 mm 2 mps 749 mmHg 89%
    05:00 +18°C° 0 mm 2 mps 749 mmHg 87%
    06:00 +18°C° 0 mm 2 mps 749 mmHg 85%
    07:00 +20°C° 0 mm 2 mps 749 mmHg 79%
    08:00 +21°C° 0 mm 2 mps 749 mmHg 73%
    09:00 +22°C° 0 mm 3 mps 749 mmHg 66%
    10:00 +24°C° 0 mm 3 mps 749 mmHg 63%
    11:00 +25°C° 0 mm 3 mps 749 mmHg 59%
    12:00 +26°C° 0 mm 3 mps 749 mmHg 55%
    13:00 +26°C° 0 mm 3 mps 749 mmHg 55%
    14:00 +26°C° 0 mm 3 mps 749 mmHg 55%
    15:00 +26°C° 0 mm 3 mps 749 mmHg 55%
    16:00 +26°C° 0.2 mm 3 mps 749 mmHg 60%
    17:00 +25°C° 0.2 mm 3 mps 749 mmHg 64%
    18:00 +24°C° 0.2 mm 3 mps 749 mmHg 69%
    19:00 +21°C° 0 mm 3 mps 750 mmHg 73%
    20:00 +20°C° 0 mm 3 mps 750 mmHg 77%
    21:00 +18°C° 0 mm 2 mps 750 mmHg 82%
    22:00 +18°C° 0 mm 2 mps 750 mmHg 82%
    23:00 +17°C° 0 mm 2 mps 751 mmHg 82%

    25 July, Wednesday

    Time Temperature Precipitation Wind Pressure Humidity
    00:00 +17°C° 0 mm 2 mps 751 mmHg 82%
    01:00 +16°C° 0 mm 2 mps 751 mmHg 83%
    02:00 +16°C° 0 mm 2 mps 751 mmHg 83%
    03:00 +16°C° 0 mm 2 mps 751 mmHg 83%
    04:00 +16°C° 0 mm 2 mps 751 mmHg 82%
    05:00 +16°C° 0 mm 2 mps 751 mmHg 81%
    06:00 +17°C° 0 mm 2 mps 751 mmHg 79%
    07:00 +19°C° 0 mm 1 mps 751 mmHg 75%
    08:00 +21°C° 0 mm 1 mps 751 mmHg 71%
    09:00 +22°C° 0 mm 1 mps 751 mmHg 67%
    10:00 +23°C° 0 mm 1 mps 751 mmHg 65%
    11:00 +24°C° 0 mm 1 mps 750 mmHg 62%
    12:00 +25°C° 0 mm 1 mps 750 mmHg 60%
    13:00 +25°C° 0.1 mm 1 mps 750 mmHg 58%
    14:00 +26°C° 0.1 mm 1 mps 750 mmHg 57%
    15:00 +26°C° 0.1 mm 2 mps 750 mmHg 55%
    16:00 +26°C° 0.2 mm 2 mps 749 mmHg 58%
    17:00 +26°C° 0.2 mm 2 mps 749 mmHg 61%
    18:00 +26°C° 0.2 mm 2 mps 749 mmHg 64%
    19:00 +24°C° 0.1 mm 2 mps 749 mmHg 69%
    20:00 +23°C° 0.1 mm 2 mps 749 mmHg 74%
    21:00 +20°C° 0.1 mm 2 mps 749 mmHg 79%
    22:00 +19°C° 0 mm 2 mps 749 mmHg 80%
    23:00 +19°C° 0 mm 2 mps 749 mmHg 82%

    26 July, Thursday

    Time Temperature Precipitation Wind Pressure Humidity
    00:00 +18°C° 0 mm 2 mps 749 mmHg 84%
    01:00 +17°C° 0 mm 3 mps 749 mmHg 83%
    02:00 +17°C° 0 mm 3 mps 749 mmHg 82%
    03:00 +16°C° 0 mm 3 mps 749 mmHg 81%
    04:00 +16°C° 0 mm 3 mps 749 mmHg 82%
    05:00 +17°C° 0 mm 3 mps 749 mmHg 82%
    06:00 +17°C° 0 mm 3 mps 749 mmHg 82%
    07:00 +19°C° 0 mm 4 mps 750 mmHg 78%
    08:00 +20°C° 0 mm 4 mps 750 mmHg 74%
    09:00 +21°C° 0 mm 4 mps 751 mmHg 69%
    10:00 +22°C° 0 mm 4 mps 751 mmHg 66%
    11:00 +23°C° 0 mm 4 mps 751 mmHg 62%
    12:00 +24°C° 0 mm 3 mps 751 mmHg 58%
    13:00 +25°C° 0 mm 3 mps 751 mmHg 58%
    14:00 +25°C° 0 mm 3 mps 751 mmHg 57%
    15:00 +25°C° 0 mm 2 mps 751 mmHg 57%
    16:00 +25°C° 0 mm 2 mps 751 mmHg 58%
    17:00 +24°C° 0 mm 1 mps 751 mmHg 59%
    18:00 +24°C° 0 mm 1 mps 751 mmHg 60%
    19:00 +23°C° 0 mm 1 mps 751 mmHg 65%
    20:00 +21°C° 0 mm 1 mps 752 mmHg 70%
    21:00 +20°C° 0 mm 1 mps 752 mmHg 75%
    22:00 +20°C° 0 mm 1 mps 751 mmHg 77%
    23:00 +19°C° 0 mm 1 mps 751 mmHg 79%

    27 July, Friday

    Time Temperature Precipitation Wind Pressure Humidity
    00:00 +19°C° 0 mm 1 mps 751 mmHg 81%
    01:00 +18°C° 0 mm 2 mps 751 mmHg 81%
    02:00 +18°C° 0 mm 2 mps 750 mmHg 82%
    03:00 +18°C° 0 mm 2 mps 750 mmHg 82%
    04:00 +18°C° 0 mm 2 mps 750 mmHg 82%
    05:00 +18°C° 0 mm 2 mps 750 mmHg 82%
    06:00 +18°C° 0 mm 3 mps 750 mmHg 83%
    07:00 +19°C° 0 mm 3 mps 750 mmHg 77%
    08:00 +20°C° 0 mm 4 mps 749 mmHg 71%
    09:00 +21°C° 0 mm 4 mps 749 mmHg 65%
    10:00 +22°C° 0 mm 4 mps 749 mmHg 62%
    11:00 +23°C° 0 mm 4 mps 749 mmHg 58%
    12:00 +23°C° 0 mm 4 mps 749 mmHg 55%
    13:00 +22°C° 0.1 mm 4 mps 749 mmHg 58%
    14:00 +21°C° 0.1 mm 4 mps 749 mmHg 62%
    15:00 +20°C° 0.1 mm 4 mps 749 mmHg 65%
    16:00 +20°C° 0.1 mm 3 mps 749 mmHg 68%
    17:00 +19°C° 0.1 mm 3 mps 749 mmHg 70%
    18:00 +19°C° 0.1 mm 3 mps 749 mmHg 73%
    19:00 +18°C° 0 mm 2 mps 749 mmHg 75%
    20:00 +17°C° 0 mm 2 mps 750 mmHg 78%
    21:00 +16°C° 0 mm 2 mps 750 mmHg 81%
    22:00 +16°C° 0 mm 2 mps 750 mmHg 82%
    23:00 +15°C° 0 mm 2 mps 750 mmHg 83%
    Show more